User: anonymous   Login
Location: DARK SKY Beskydy - Park tmavé oblohy, www.darkskybeskydy.cz
(49.4926°N, 18.5016°E)
Time: 18:17:24
(UTC+02:00)
Language:

Altair - Orbit

View from above orbital plane
View from above orbital plane
View from above satellite
View from above satellite

Ground track
Ground track

The orbit data is extracted from the following two-line orbital elements,

1 00050U 60009B   24195.67190300 -.00000068  00000-0  17631-3 0  9993
2 00050  47.2277 185.3695 0112621  77.9681 283.3704 12.20141758851804
Epoch (UTC): 13 July 2024 16:07:32
Eccentricity: 0.0112621
inclination: 47.2277°
perigee height: 1502 km
apogee height: 1681 km
right ascension of ascending node: 185.3695°
argument of perigee: 77.9681°
revolutions per day: 12.20141758
mean anomaly at epoch: 283.3704°
orbit number at epoch: 85180

The dashed part of the orbit path shows where the satellite is in the earth's shadow,  

DLR